Location: Del Oro Observatory
(38.3044°N, 104.8119°W)
Time: 05:54:24
(UTC-06:00)

Iridium 35 - Visible Passes

Search period start: 28 April 2015 00:00
Search period end: 08 May 2015 00:00
Orbit: 776 x 779 km, 86.4° (Epoch: 27 April)

Date Brightness Start Highest point End Pass type
(mag) Time Alt. Az. Time Alt. Az. Time Alt. Az.
28 Apr 7.9 04:21:07 10° ESE 04:23:34 14° E 04:26:19 10° NE visible
29 Apr 5.4 05:25:08 10° S 05:30:18 72° E 05:35:31 10° N visible
30 Apr 6.6 04:52:08 10° SSE 04:56:52 38° E 05:01:42 10° NNE visible
01 May 7.6 04:19:53 10° SE 04:23:33 20° E 04:27:24 10° NE visible
02 May 8.1 03:49:27 10° E 03:50:17 11° ENE 03:51:29 10° ENE visible
02 May 5.0 05:25:12 10° S 05:30:24 78° W 05:35:39 10° N visible
03 May 5.8 04:51:52 10° SSE 04:56:56 56° E 05:02:02 10° NNE visible
04 May 6.9 04:19:07 10° SE 04:23:32 30° E 04:28:04 10° NNE visible
05 May 7.7 03:47:16 10° ESE 03:50:14 16° E 03:53:26 10° NE visible
05 May 5.2 05:25:29 10° SSW 05:30:33 53° W 05:35:39 10° N visible
06 May 5.1 04:51:48 10° S 04:57:01 82° E 05:02:15 10° N visible
07 May 6.2 04:18:41 10° SSE 04:23:34 43° E 04:28:30 10° NNE visible
